This demonstration page uses our WeatherBlox Daily Observations layout. Learn more.

Left ArrowRight Arrow

Hourly Observations for January 17, 2022

Temp ( °F °C ) Dew Point ( °F °C ) Humidity (%) Winds ( mph kmh ) Pressure ( in mb ) Visibility ( mi km ) Precip ( " mm )
12:53 am 00:53 Clear 27 -2.8 20 -6.7 75 75 WNW 10 17 29.57 1001 10 16 0.00 0.00
1:53 am 01:53 Clear 26 -3.3 18 -7.8 71 71 WNW 14 22 29.56 1001 10 16 0.00 0.00
2:53 am 02:53 Clear 26 -3.3 17 -8.3 69 69 WNW 13 20 29.57 1001 10 16 0.00 0.00
3:53 am 03:53 Mostly Cloudy 27 -2.8 18 -7.8 69 69 WNW 13 20 29.59 1002 10 16 0.00 0.00
4:53 am 04:53 Cloudy 27 -2.8 14 -10 58 58 WNW 12 19 29.61 1003 10 16 0.00 0.00
5:53 am 05:53 Cloudy 27 -2.8 15 -9.4 61 61 WNW 12 19 29.64 1004 10 16 0.00 0.00
6:53 am 06:53 Cloudy 26 -3.3 18 -7.8 71 71 W 9 15 29.68 1005 9 14 0.00 0.00
7:38 am 07:38 Cloudy 26 -3.3 19 -7.2 75 75 WNW 13 20 29.72 1006 10 16 0.00 0.00
7:53 am 07:53 Cloudy 26 -3.3 19 -7.2 75 75 W 8 13 29.70 1006 10 16 0.00 0.00
8:53 am 08:53 Cloudy with Haze 27 -2.8 21 -6.1 78 78 W 8 13 29.72 1007 6 10 0.00 0.00
9:10 am 09:10 Cloudy with Light Snow 27 -2.8 22 -5.6 81 81 W 13 20 29.76 1008 4 6 0.00 0.00
9:53 am 09:53 Cloudy with Haze 27 -2.8 22 -5.6 81 81 W 9 15 29.76 1008 6 10 0.00 0.00
10:53 am 10:53 Cloudy with Haze 28 -2.2 21 -6.1 75 75 W 14 22 29.78 1009 6 10 0.00 0.00
11:00 am 11:00 Cloudy with Haze 28 -2.2 21 -6.1 75 75 W 10 17 29.80 1009 6 10 0.00 0.00
11:53 am 11:53 Cloudy 27 -2.8 20 -6.7 75 75 W 14 22 29.80 1009 7 11 0.00 0.00
12:53 pm 12:53 Cloudy with Haze 27 -2.8 21 -6.1 78 78 W 12 19 29.80 1009 5 8 0.00 0.00
1:53 pm 13:53 Cloudy with Haze 27 -2.8 21 -6.1 78 78 W 12 19 29.81 1010 5 8 0.00 0.00
2:07 pm 14:07 Cloudy with Haze 27 -2.8 21 -6.1 78 78 WNW 14 22 29.84 1011 5 8 0.00 0.00
2:53 pm 14:53 Cloudy with Haze 28 -2.2 21 -6.1 75 75 WNW 13 20 29.85 1011 6 10 0.00 0.00
3:53 pm 15:53 Cloudy 28 -2.2 22 -5.6 78 78 W 9 15 29.87 1012 7 11 0.00 0.00
4:53 pm 16:53 Cloudy 28 -2.2 21 -6.1 75 75 W 9 15 29.90 1013 9 14 0.00 0.00
5:53 pm 17:53 Cloudy 28 -2.2 21 -6.1 75 75 W 7 11 29.92 1013 9 14 0.00 0.00
6:20 pm 18:20 Cloudy 28 -2.2 21 -6.1 75 75 W 8 13 29.96 1015 10 16 0.00 0.00
6:53 pm 18:53 Cloudy 28 -2.2 21 -6.1 75 75 W 9 15 29.95 1014 10 16 0.00 0.00
7:53 pm 19:53 Cloudy 28 -2.2 21 -6.1 75 75 W 8 13 29.97 1015 10 16 0.00 0.00
8:53 pm 20:53 Cloudy 28 -2.2 21 -6.1 75 75 W 8 13 30.00 1016 10 16 0.00 0.00
9:49 pm 21:49 Cloudy 28 -2 19 -7 69 69 W 7 11 30.04 1017 10 16 0.00 0.00
9:53 pm 21:53 Cloudy 28 -2.2 20 -6.7 72 72 W 8 13 30.03 1017 10 16 0.00 0.00
10:53 pm 22:53 Cloudy 28 -2.2 18 -7.8 66 66 WNW 10 17 30.05 1018 10 16 0.00 0.00
11:53 pm 23:53 Cloudy 27 -2.8 19 -7.2 72 72 W 9 15 30.05 1018 10 16 0.00 0.00

Powered by AerisWeather